Hourly Data Report for October 14, 2016

All times are specified in Local Standard Time (LST). Add 1 hour to adjust for Daylight Saving Time where and when it is observed.

KUGAARUK CLIMATE
NUNAVUT

68°32'15.060" N
89°47'47.020" W
15.80 m
2303094
71407
NBB

Download Data

Hourly Data (October 2016)
Hourly Data Report for October 14, 2016
Temp Definition
°C
Dew Point Temp Definition
°C
Rel Hum Definition
%
Wind Dir Definition
10's deg

Wind Spd Definition
km/h
Visibility Definition
km
Stn Press Definition
kPa
Hmdx Definition


Wind Chill Definition


Weather Definition


TIME
00:00 -14.2 -15.8 88 10 4   100.75   -17 LegendNANA
01:00 -13.3 -14.6 90 10 8   100.76   -18 LegendNANA
02:00 -14.2 -15.8 88 4 3   100.77   -16 LegendNANA
03:00 -14.0 -15.6 87 6 5   100.75   -17 LegendNANA
04:00 -15.6 -17.3 87 7 5   100.75   -19 LegendNANA
05:00 -18.3 -20.3 84 6 4   100.75   -22 LegendNANA
06:00 -15.9 -17.5 87 9 3   100.77   -18 LegendNANA
07:00 -15.5 -17.2 87 7 4   100.77   -18 LegendNANA
08:00 -13.8 -15.3 88 5 3   100.76   -16 LegendNANA
09:00 -13.0 -14.4 89 6 2   100.77   -14 LegendNANA
10:00 -12.1 -13.7 88 8 2   100.78   -13 LegendNANA
11:00 -10.8 -13.6 80 10 3   100.80   -13 LegendNANA
12:00 -9.3 -12.8 76 0 1   100.80   -10 LegendNANA
13:00 -8.7 -11.0 83 7 2   100.79   -10 LegendNANA
14:00 -7.9 -10.7 80 13 2   100.79   -9 LegendNANA
15:00 -11.1 -13.5 82 16 9   100.78   -16 LegendNANA
16:00 -11.1 -13.1 85 3 2   100.77   -12 LegendNANA
17:00 -8.6 -10.6 86 22 13   100.75   -15 LegendNANA
18:00 -8.4 -10.4 85 24 17   100.73   -15 LegendNANA
19:00 -9.5 -11.5 85 23 22   100.69   -18 LegendNANA
20:00 -9.0 -10.8 87 22 24   100.66   -17 LegendNANA
21:00 -8.6 -10.2 88 22 24   100.64   -17 LegendNANA
22:00 -8.6 -10.2 88 22 19   100.69   -16 LegendNANA
23:00 -7.9 -9.7 87 25 21   100.67   -15 LegendNANA

Notes on Data Quality.

Legend

  • E = Estimated
  • M = Missing
  • NA = Not Available
  • ‡ = Partner data that is not subject to review by the National Climate Archives
Date modified: